Temp
85 93 92 79 67 67 64 68 79 77 78 90 93 91 87 85 77 70 95 97 96 95 91 89 83 83 83 83 83 83 83 83 83 83 83 83 83 83 84 84 84 83 84 84 84 84 84 84 83
97 96 89 69 65 62 64 77 73 80 88 93 92 91 85 79 89 90 92 97 97 97 96 93 82 83 83 83 83 83 83 83 83 83 83 83 83 84 83 84 83 84 84 84 84 85 85 84 84
91 94 71 64 69 62 65 76 79 87 91 91 87 89 85 80 91 92 97 98 96 96 95 89 83 83 83 83 83 83 83 83 83 83 84 84 84 84 84 83 83 84 84 84 85 85 84 84 84
90 80 78 61 68 74 76 79 88 83 85 91 88 79 86 94 93 96 99 101 99 95 94 86 83 83 83 83 83 83 83 83 83 83 83 84 84 84 84 84 84 84 84 85 84 85 84 84 84
89 79 69 69 71 78 83 87 88 82 85 85 85 80 82 93 98 98 99 100 98 92 95 92 83 83 83 83 83 83 83 83 83 83 84 84 84 84 84 84 83 85 85 84 84 83 84 84 83
72 79 68 67 71 78 83 78 83 83 84 83 82 79 81 94 95 97 101 99 99 99 98 92 84 83 83 83 84 83 83 83 83 83 83 84 84 85 84 84 85 85 85 84 84 84 84 83 83
74 72 69 72 72 72 76 76 75 80 80 79 87 79 84 91 96 99 101 102 99 100 99 95 93 87 84 84 84 83 83 83 83 83 84 84 84 84 85 85 85 84 85 84 85 84 84 83 83
80 77 72 77 70 69 78 71 73 78 75 85 92 79 80 90 97 100 102 100 97 99 100 88 96 95 91 90 84 83 83 83 83 84 84 84 84 84 85 84 84 85 85 84 85 85 84 83 83
89 71 69 73 73 73 78 70 72 77 81 85 89 91 92 95 98 98 97 94 96 95 97 97 96 85 90 90 87 84 83 84 84 85 84 84 89 92 88 84 85 85 85 85 85 85 84 83 83
82 73 74 82 84 78 78 71 70 74 81 82 87 92 94 95 95 94 94 93 93 94 97 87 89 91 88 97 88 90 84 90 91 94 83 83 89 90 92 87 84 85 85 85 85 85 83 83 93
83 74 82 86 88 86 79 73 76 73 73 82 83 87 90 92 93 94 95 96 97 97 94 94 90 93 95 93 92 93 85 94 94 85 83 89 90 92 93 90 91 90 86 93 88 85 84 81 97
77 84 86 87 89 86 80 80 74 76 75 86 87 90 91 91 93 94 95 96 96 96 91 90 96 95 95 97 96 98 97 96 89 90 92 86 92 94 92 86 91 80 81 91 80 95 93 92 94
79 85 90 90 91 85 85 78 76 76 82 86 87 90 90 92 94 96 96 98 96 95 96 96 94 92 92 90 84 90 95 97 94 94 92 86 86 92 94 93 92 93 93 91 92 87 90 94 88
89 89 89 92 92 88 78 80 82 76 83 82 85 88 91 93 94 94 95 94 93 94 95 96 93 91 92 90 88 93 89 96 97 95 94 93 91 87 93 88 85 82 83 79 80 81 93 83 94
89 85 89 90 90 87 88 76 74 76 82 79 83 89 91 93 95 93 95 94 94 95 95 93 93 93 91 89 90 90 96 88 94 93 92 92 92 91 91 90 84 89 92 92 94 84 92 96 93
85 87 76 88 89 87 83 67 75 73 76 79 85 89 90 92 94 94 96 96 96 95 92 93 97 94 92 91 91 85 90 87 85 95 93 92 91 91 87 87 85 94 89 85 89 91 89 90 84
84 78 75 81 87 87 79 71 77 80 75 78 83 87 90 91 93 94 96 96 95 94 92 91 94 92 92 90 92 86 92 85 87 86 85 92 92 91 83 83 90 91 85 90 84 88 84 89 89
77 78 82 76 85 88 75 77 77 79 75 74 82 83 85 87 90 94 95 97 96 94 92 91 93 91 91 91 88 84 91 89 89 84 82 91 91 91 87 85 92 90 85 89 81 88 88 82 87
88 83 78 72 90 82 77 79 75 73 76 78 79 82 82 86 94 94 96 96 95 94 91 90 90 88 90 90 91 82 90 83 86 85 92 91 88 91 90 82 91 82 87 88 92 91 89 92 93
85 84 81 79 89 87 85 78 80 80 82 80 80 80 80 87 92 90 91 95 95 92 90 89 89 87 88 92 92 94 80 82 94 93 92 90 92 91 91 86 91 85 86 89 90 87 87 91 89
84 84 82 81 85 89 85 75 77 76 82 83 82 83 82 85 88 85 88 90 95 92 90 89 88 87 88 91 91 92 91 84 92 89 92 92 92 92 89 90 76 90 83 91 89 90 87 74 93
79 89 86 84 80 75 87 69 76 76 76 79 79 80 82 85 87 88 83 87 95 93 92 89 88 87 88 89 85 87 87 88 82 89 82 92 92 91 92 91 91 90 87 82 90 93 88 89 89
83 89 85 84 81 80 80 66 59 81 74 77 79 80 83 82 90 87 89 87 93 95 94 91 88 87 89 88 84 89 87 80 81 82 85 90 89 91 93 92 91 89 87 91 84 89 88 93 90
87 86 83 84 82 72 80 77 56 74 78 81 81 79 85 85 83 89 90 88 91 97 95 93 88 86 87 87 87 87 88 84 79 86 88 92 93 92 91 91 90 90 91 90 90 90 89 88 89
83 79 68 66 68 69 83 77 62 78 82 84 82 86 88 87 83 88 82 89 90 94 95 94 89 85 87 88 88 87 87 88 88 88 89 79 86 91 88 89 88 91 89 91 91 89 88 89 89
79 80 71 59 65 72 83 70 71 82 85 85 82 87 88 93 93 84 90 88 88 91 95 94 90 87 87 87 87 88 88 91 92 90 87 89 89 96 90 91 90 90 90 90 89 90 91 91 90
78 74 88 78 81 75 75 71 78 81 79 75 70 76 83 90 92 91 91 79 87 91 93 93 92 89 89 89 88 87 88 88 92 92 91 91 92 83 91 93 90 91 91 91 89 90 89 89 89
79 86 75 77 64 64 69 67 70 73 72 67 65 69 76 84 90 90 87 82 73 90 92 95 94 91 90 91 90 90 89 89 89 91 90 92 93 94 78 91 91 91 91 90 88 89 91 89 91
77 75 80 82 79 69 63 66 79 72 70 64 64 65 67 74 77 82 76 72 80 93 90 92 95 93 92 92 91 91 91 91 89 90 90 90 91 91 92 90 91 91 91 90 89 88 91 88 88
80 78 79 71 68 76 69 64 79 77 75 69 65 65 69 72 73 73 74 71 71 75 77 73 89 95 95 94 92 92 92 92 91 89 90 90 89 91 90 90 90 89 91 91 88 89 92 90 88
MSLP
1010.82 1010.15 1009.54 1009.74 1009.85 1008.69 1007.25 1006.60 1005.60 1005.12 1004.97 1004.21 1004.13 1003.97 1004.97 1006.25 1007.15 1008.51 1010.34 1011.13 1012.12 1013.39 1014.91 1015.50 1016.21 1016.47 1016.67 1016.85 1016.95 1017.02 1017.16 1017.28 1017.31 1017.39 1017.47 1017.59 1017.62 1017.62 1017.70 1017.70 1017.77 1017.88 1017.83 1017.85 1017.89 1017.98 1017.97 1018.09 1018.33
1009.00 1008.84 1009.27 1009.93 1008.85 1007.09 1006.66 1005.71 1005.47 1004.95 1004.19 1004.70 1004.73 1005.19 1005.78 1007.53 1008.18 1009.09 1010.15 1011.39 1012.03 1013.09 1014.06 1015.21 1016.43 1016.65 1016.94 1017.13 1017.17 1017.18 1017.29 1017.50 1017.54 1017.63 1017.71 1017.87 1017.89 1017.90 1018.09 1018.00 1018.15 1018.11 1018.17 1018.21 1018.14 1018.10 1018.23 1018.33 1018.35
1009.59 1008.88 1009.22 1009.00 1007.74 1006.33 1005.99 1005.41 1004.91 1004.48 1004.84 1004.97 1005.37 1006.06 1006.98 1008.63 1008.99 1009.40 1010.73 1011.48 1012.15 1012.93 1013.76 1015.79 1016.50 1016.85 1017.02 1017.28 1017.39 1017.39 1017.52 1017.75 1017.82 1017.89 1017.91 1018.03 1018.06 1018.06 1018.15 1018.33 1018.48 1018.39 1018.40 1018.39 1018.35 1018.48 1018.57 1018.59 1018.63
1008.65 1009.13 1008.35 1006.56 1006.54 1005.73 1005.28 1005.19 1004.67 1005.32 1005.85 1005.62 1006.49 1007.70 1009.08 1008.75 1009.35 1010.21 1011.09 1011.34 1012.03 1013.35 1014.15 1016.20 1016.64 1017.00 1017.20 1017.39 1017.57 1017.62 1017.78 1017.92 1018.12 1018.04 1018.19 1018.28 1018.30 1018.37 1018.43 1018.54 1018.67 1018.75 1018.62 1018.63 1018.69 1018.81 1018.97 1019.07 1018.95
1008.29 1008.34 1007.59 1006.64 1006.28 1005.68 1005.42 1005.25 1005.21 1005.63 1006.21 1006.60 1007.02 1008.19 1009.07 1009.50 1009.90 1010.83 1011.05 1011.35 1012.03 1013.77 1014.75 1015.93 1016.71 1017.04 1017.39 1017.59 1017.80 1017.95 1018.05 1018.16 1018.29 1018.33 1018.40 1018.49 1018.55 1018.63 1018.75 1018.76 1018.91 1018.84 1018.82 1018.85 1019.11 1019.27 1019.23 1019.26 1019.17
1008.36 1007.79 1006.73 1006.04 1006.38 1006.05 1006.23 1006.94 1006.53 1006.49 1007.42 1007.74 1007.97 1009.08 1009.85 1010.39 1010.65 1011.01 1010.95 1011.51 1011.99 1012.76 1014.16 1015.99 1017.02 1017.33 1017.57 1017.81 1017.93 1018.17 1018.35 1018.41 1018.59 1018.62 1018.69 1018.74 1018.80 1018.84 1018.86 1019.00 1018.98 1019.02 1019.01 1019.15 1019.26 1019.37 1019.48 1019.26 1019.57
1007.79 1007.24 1006.14 1005.87 1006.17 1006.77 1007.39 1008.21 1007.92 1007.49 1008.13 1008.15 1007.90 1008.43 1009.92 1010.37 1010.85 1011.03 1010.99 1011.62 1012.26 1012.57 1013.87 1015.34 1016.38 1017.32 1017.73 1017.93 1018.11 1018.33 1018.47 1018.66 1018.81 1018.88 1018.89 1018.97 1019.06 1019.16 1019.10 1019.17 1019.19 1019.27 1019.21 1019.26 1019.32 1019.37 1019.40 1019.57 1019.93
1007.17 1006.89 1005.63 1005.17 1005.88 1006.72 1008.05 1009.30 1009.65 1008.80 1009.07 1008.85 1007.67 1008.39 1009.39 1010.22 1010.83 1011.00 1011.12 1011.76 1012.65 1012.79 1013.50 1014.95 1015.41 1016.06 1016.65 1017.65 1018.37 1018.52 1018.70 1018.87 1019.01 1019.03 1018.97 1018.91 1019.06 1019.33 1019.36 1019.42 1019.51 1019.53 1019.51 1019.46 1019.35 1019.42 1019.69 1019.78 1019.88
1006.28 1006.39 1005.47 1005.15 1005.33 1006.83 1008.36 1009.50 1010.16 1009.96 1009.17 1008.49 1007.95 1008.17 1009.41 1010.53 1010.87 1011.01 1011.36 1012.69 1012.91 1013.51 1013.75 1014.43 1015.32 1016.81 1017.03 1017.48 1018.36 1018.68 1018.85 1018.92 1019.03 1019.11 1019.01 1018.77 1018.25 1018.68 1019.27 1019.73 1019.87 1019.83 1019.71 1019.57 1019.51 1020.09 1020.58 1020.63 1020.09
1005.75 1005.70 1005.17 1004.89 1004.95 1006.50 1008.05 1009.59 1010.09 1010.03 1009.04 1008.65 1008.17 1008.98 1010.09 1010.67 1010.86 1011.11 1011.47 1012.18 1013.14 1013.44 1013.71 1015.05 1015.78 1016.21 1016.99 1016.49 1018.17 1018.01 1018.70 1018.39 1018.14 1017.99 1018.57 1018.74 1018.44 1018.83 1019.25 1019.93 1020.13 1020.08 1019.85 1019.67 1019.86 1020.52 1020.19 1020.35 1019.51
1005.07 1005.04 1004.76 1004.52 1005.00 1005.90 1007.78 1009.49 1010.19 1009.89 1009.36 1008.78 1008.85 1009.38 1010.33 1010.76 1010.95 1011.26 1011.57 1012.07 1012.52 1013.29 1014.15 1014.77 1015.75 1016.01 1016.19 1016.59 1016.75 1017.17 1017.93 1017.66 1018.23 1018.76 1018.76 1018.53 1018.61 1018.97 1019.10 1019.59 1019.59 1019.58 1019.48 1018.73 1019.36 1020.08 1020.64 1020.02 1018.49
1005.02 1004.67 1004.44 1004.48 1004.70 1005.50 1006.84 1008.78 1009.56 1010.01 1009.77 1009.09 1009.41 1009.82 1010.37 1010.76 1010.82 1011.19 1011.54 1011.94 1012.71 1013.56 1014.53 1015.09 1015.45 1015.83 1016.18 1016.27 1016.19 1016.32 1016.91 1017.51 1018.27 1018.82 1018.69 1018.79 1018.43 1018.36 1018.34 1019.02 1018.82 1019.63 1019.47 1018.33 1018.73 1018.87 1019.34 1019.36 1018.75
1004.78 1003.79 1003.78 1004.02 1004.22 1005.62 1006.85 1007.96 1009.10 1009.85 1009.83 1009.89 1010.02 1010.10 1010.40 1010.65 1010.89 1011.37 1011.95 1012.13 1013.26 1013.89 1014.35 1015.16 1016.03 1016.55 1016.85 1016.89 1017.24 1017.23 1017.19 1017.14 1018.40 1018.43 1018.75 1018.80 1018.84 1018.93 1018.95 1019.01 1018.71 1018.63 1018.64 1018.46 1018.33 1018.55 1018.54 1018.44 1019.03
1003.48 1003.21 1003.23 1003.18 1003.60 1005.16 1006.66 1007.59 1008.43 1010.17 1010.33 1010.50 1010.18 1010.15 1010.40 1010.57 1010.89 1011.62 1012.11 1012.58 1013.75 1014.16 1014.67 1015.55 1016.43 1017.11 1017.15 1017.25 1017.83 1017.41 1017.40 1017.75 1017.65 1018.49 1018.94 1018.87 1018.95 1019.20 1019.24 1019.26 1019.18 1019.60 1019.65 1019.90 1019.23 1019.53 1018.55 1019.36 1018.94
1003.31 1002.96 1002.84 1002.79 1003.57 1004.59 1005.65 1007.37 1008.91 1010.48 1010.65 1010.65 1010.19 1010.23 1010.37 1010.68 1011.07 1011.83 1012.20 1013.05 1013.87 1014.44 1014.96 1015.93 1016.51 1017.07 1017.45 1017.93 1018.10 1017.93 1017.41 1017.92 1017.89 1018.78 1019.25 1019.32 1019.46 1019.40 1019.36 1019.33 1019.57 1019.19 1019.54 1019.45 1019.09 1019.50 1018.98 1018.66 1019.31
1002.95 1002.66 1002.09 1002.63 1003.40 1004.36 1005.37 1007.46 1009.70 1011.01 1011.01 1010.58 1010.21 1010.07 1010.50 1010.75 1011.27 1012.05 1012.54 1013.23 1013.84 1014.52 1015.27 1016.15 1016.10 1017.01 1017.47 1017.67 1018.08 1018.12 1017.82 1018.36 1018.47 1018.36 1019.19 1019.47 1019.75 1019.69 1019.66 1019.64 1019.50 1019.46 1019.46 1019.52 1019.48 1019.40 1019.27 1019.61 1019.85
1002.09 1000.89 1001.38 1002.00 1002.93 1003.75 1005.27 1007.37 1009.36 1010.63 1011.27 1010.69 1010.46 1010.17 1010.42 1010.75 1011.30 1012.13 1012.71 1013.33 1014.03 1014.77 1015.72 1016.19 1016.37 1017.07 1017.55 1018.00 1017.72 1018.29 1018.09 1018.72 1018.75 1018.90 1019.16 1019.45 1019.61 1019.82 1019.73 1019.97 1019.77 1019.86 1019.68 1019.48 1019.85 1019.55 1019.95 1019.66 1019.69
1000.49 1000.09 1000.29 1001.55 1002.42 1002.80 1004.55 1006.35 1009.03 1010.25 1011.08 1010.94 1010.57 1010.71 1010.59 1010.80 1011.19 1012.10 1012.65 1013.25 1014.03 1015.00 1015.96 1016.47 1016.68 1017.33 1017.73 1018.07 1018.15 1018.55 1018.27 1018.53 1018.82 1019.08 1019.53 1019.55 1019.76 1019.96 1019.74 1019.86 1019.77 1019.78 1019.64 1019.84 1020.04 1019.85 1019.97 1020.10 1019.83
999.61 999.61 1000.31 1001.87 1001.13 1002.19 1003.96 1005.66 1008.41 1010.17 1010.45 1010.63 1010.82 1010.98 1010.82 1010.85 1011.03 1011.96 1012.39 1013.18 1013.93 1014.89 1015.91 1016.53 1016.91 1017.70 1017.95 1018.15 1017.89 1018.59 1018.38 1018.76 1018.92 1019.13 1019.15 1019.48 1019.76 1019.86 1019.67 1019.97 1019.80 1020.57 1020.05 1020.22 1020.13 1020.20 1020.20 1019.66 1019.85
999.72 998.91 999.57 1001.01 1000.87 1001.73 1002.69 1004.55 1007.29 1008.67 1009.02 1009.93 1010.42 1010.80 1011.10 1010.67 1010.97 1011.83 1012.31 1012.96 1013.69 1014.69 1015.58 1016.41 1017.00 1017.79 1018.15 1017.97 1017.70 1017.42 1018.59 1018.68 1018.23 1018.63 1018.95 1019.37 1019.53 1019.89 1019.76 1019.86 1019.62 1020.06 1020.25 1020.23 1020.32 1020.24 1020.01 1019.77 1020.03
999.73 998.45 999.11 1000.05 1001.38 1001.53 1002.53 1004.41 1006.72 1008.75 1008.74 1009.47 1010.24 1010.59 1011.09 1010.57 1010.90 1011.95 1012.44 1012.82 1013.29 1014.35 1015.33 1016.18 1016.89 1017.57 1018.18 1017.89 1018.01 1017.99 1018.18 1018.58 1018.23 1018.67 1018.89 1019.12 1019.45 1019.81 1020.10 1019.98 1020.99 1019.90 1020.29 1020.17 1020.46 1020.32 1020.17 1020.62 1019.88
999.77 999.20 999.57 1000.17 1000.92 1000.41 1001.58 1002.84 1004.96 1007.25 1008.66 1009.19 1010.05 1010.66 1010.61 1010.74 1010.91 1011.56 1012.46 1012.64 1012.70 1013.90 1014.97 1016.00 1016.81 1017.37 1017.99 1018.02 1017.85 1018.19 1018.19 1017.96 1018.26 1018.30 1018.95 1018.75 1019.23 1019.65 1019.79 1020.05 1019.91 1019.99 1019.92 1020.19 1020.23 1020.08 1020.34 1020.23 1019.79
999.78 999.85 1000.10 1000.53 1000.61 1000.22 1001.11 1003.77 1006.09 1005.56 1007.50 1008.53 1009.73 1010.31 1010.28 1010.68 1010.41 1011.25 1011.77 1012.54 1012.43 1013.31 1014.37 1015.41 1016.47 1017.14 1017.49 1018.03 1018.27 1018.13 1017.99 1018.18 1018.60 1018.37 1018.78 1018.97 1019.49 1019.63 1019.57 1019.84 1020.07 1020.36 1019.98 1019.81 1020.18 1020.51 1020.63 1020.09 1019.86
1000.92 1000.27 1001.30 1001.15 1000.41 999.63 1000.04 1001.62 1005.61 1004.91 1006.15 1007.27 1008.79 1009.79 1009.65 1010.10 1010.66 1010.57 1011.27 1012.11 1012.18 1012.54 1013.63 1014.68 1016.03 1016.84 1017.37 1017.82 1018.17 1018.25 1017.97 1018.18 1018.29 1018.26 1018.40 1018.51 1018.90 1019.35 1019.57 1019.75 1020.07 1020.28 1019.99 1020.22 1020.42 1020.53 1020.79 1020.75 1020.43
1001.78 1001.31 1000.80 1000.57 999.97 999.09 1000.12 1001.51 1004.83 1005.63 1006.65 1006.95 1008.07 1008.25 1008.24 1009.01 1009.91 1010.45 1011.19 1011.30 1011.77 1011.81 1012.78 1013.92 1015.28 1016.33 1017.00 1017.41 1017.75 1018.20 1018.40 1018.25 1018.25 1018.49 1018.34 1018.76 1018.29 1018.32 1019.11 1019.65 1020.01 1019.97 1020.35 1020.20 1020.30 1020.71 1020.72 1020.80 1020.72
1001.67 1000.94 999.47 998.97 998.75 998.97 999.46 1001.84 1005.33 1006.98 1007.95 1008.53 1009.28 1008.82 1008.63 1007.65 1008.52 1009.96 1009.98 1010.87 1011.13 1011.51 1012.21 1013.10 1014.37 1015.56 1016.45 1016.97 1017.31 1017.72 1018.17 1018.29 1018.22 1018.55 1018.14 1017.93 1017.95 1017.87 1018.53 1019.17 1019.62 1019.75 1020.04 1020.29 1020.49 1020.53 1020.55 1020.34 1020.76
1001.48 1000.51 999.11 998.27 998.08 998.51 1000.54 1004.61 1006.33 1007.67 1008.81 1010.85 1011.83 1011.13 1009.33 1007.94 1007.67 1008.87 1009.54 1010.56 1010.80 1010.76 1011.44 1012.45 1013.51 1014.70 1015.56 1016.14 1016.82 1017.31 1017.67 1017.94 1017.51 1017.71 1018.17 1018.21 1017.99 1018.84 1018.33 1018.46 1019.25 1019.49 1019.58 1019.87 1020.23 1020.38 1020.31 1020.45 1020.61
1002.35 1001.29 999.70 999.09 997.69 998.01 1000.29 1003.43 1004.66 1007.84 1009.95 1012.16 1012.83 1012.42 1011.34 1009.61 1008.57 1008.20 1008.94 1009.97 1011.01 1009.67 1010.61 1011.77 1012.97 1013.90 1014.73 1015.40 1016.00 1016.59 1017.07 1017.52 1017.74 1017.74 1017.99 1017.75 1017.71 1017.76 1018.75 1018.34 1018.85 1019.37 1019.48 1019.80 1020.15 1019.83 1019.82 1020.29 1020.33
1002.47 1001.63 1000.15 999.35 998.22 997.77 1000.71 1003.27 1005.63 1008.75 1011.29 1012.95 1013.85 1013.99 1013.38 1012.32 1011.70 1011.25 1012.16 1012.56 1012.24 1010.44 1010.57 1010.84 1012.06 1013.20 1014.02 1014.65 1015.14 1015.73 1016.19 1016.69 1017.31 1017.56 1017.77 1017.99 1018.07 1018.11 1018.06 1018.43 1018.78 1019.10 1019.32 1019.50 1019.89 1019.80 1019.57 1020.09 1020.35
1002.88 1001.85 1001.49 1000.17 999.59 999.25 1000.71 1005.42 1007.73 1009.49 1011.23 1013.28 1014.50 1014.95 1014.55 1013.94 1013.66 1013.60 1013.19 1012.65 1009.27 1012.40 1013.27 1012.71 1011.45 1012.27 1013.02 1013.79 1014.52 1015.09 1015.65 1016.06 1016.46 1017.07 1017.35 1017.63 1017.90 1017.84 1018.09 1018.47 1018.81 1019.10 1019.00 1019.08 1019.50 1019.74 1019.37 1019.60 1019.98
Wind_Speed
12 13 1 4 5 5 2 6 6 14 10 10 8 10 16 22 11 10 23 20 22 20 17 15 12 13 13 12 10 12 11 12 12 11 11 10 9 9 10 11 12 13 13 14 14 15 15 17 16
14 8 6 0 6 3 3 12 11 9 14 15 10 12 16 16 11 23 20 22 21 20 17 16 14 13 12 11 10 11 11 11 11 10 11 11 10 10 10 11 11 13 13 13 14 15 16 17 17
15 9 1 3 5 3 6 8 12 16 17 14 14 15 12 10 23 16 23 22 20 18 17 16 14 14 13 11 9 10 12 11 11 11 11 11 11 12 11 12 12 13 13 13 14 16 16 16 17
5 3 5 3 10 12 12 14 17 20 11 11 13 13 10 11 17 22 23 21 19 17 18 14 14 12 12 12 9 12 10 12 11 11 12 11 11 12 12 13 12 13 12 12 14 13 16 15 18
8 4 6 4 14 13 14 14 16 16 11 11 11 16 18 15 22 22 20 18 19 20 17 15 12 13 11 9 10 11 11 11 11 12 11 12 12 12 13 13 12 13 12 12 14 10 15 16 17
1 4 5 6 13 10 12 11 10 16 14 12 19 19 10 14 22 20 17 17 16 19 19 15 11 13 11 10 11 11 10 12 11 12 12 12 11 12 14 13 13 13 11 14 13 12 13 16 14
6 5 1 6 12 13 9 9 9 14 10 7 5 16 14 21 19 18 17 18 14 17 18 16 15 12 12 10 11 11 11 11 12 11 12 12 11 11 14 13 13 13 13 14 13 13 14 14 12
3 5 8 3 7 7 10 5 8 9 11 7 9 11 22 23 21 17 16 17 12 12 15 12 14 14 13 13 10 11 11 11 12 11 11 13 13 12 13 13 12 12 13 10 12 13 13 14 13
7 3 4 5 6 12 16 8 3 6 8 4 3 24 23 24 21 18 16 18 9 8 12 17 12 10 11 12 11 11 11 13 13 10 9 13 9 13 11 14 12 12 11 11 10 11 13 13 13
6 3 7 8 11 13 12 8 7 3 9 9 12 24 25 22 20 18 16 17 18 12 12 10 17 10 11 11 9 8 8 7 7 8 6 5 11 10 12 12 10 11 11 10 9 11 11 7 7
5 4 2 12 12 14 14 13 6 6 8 13 18 26 25 22 19 18 17 16 15 13 13 17 6 15 10 10 9 9 7 7 7 7 5 7 7 9 9 8 8 8 11 8 8 9 10 13 4
5 10 7 6 8 8 11 14 10 6 4 8 16 23 23 22 19 18 17 15 15 13 8 12 10 6 11 5 4 7 7 8 6 5 6 5 5 5 3 5 5 3 6 4 8 6 3 6 8
5 12 2 4 9 12 12 12 13 11 7 8 16 24 23 20 18 16 14 15 14 12 11 15 10 8 6 3 7 6 6 8 9 8 3 3 4 6 6 4 2 4 4 2 2 3 4 6 4
10 9 2 3 8 11 13 14 11 7 12 13 20 24 22 20 18 16 16 15 13 12 11 14 11 10 7 8 4 3 5 6 8 8 5 6 6 4 6 4 3 7 4 3 6 6 3 4 7
2 10 9 7 10 11 16 12 12 9 14 18 20 22 20 19 17 15 14 14 14 11 13 12 12 11 8 9 5 2 7 4 6 10 6 6 6 2 4 3 1 4 4 2 3 7 4 7 7
13 13 12 12 13 8 9 11 17 11 12 19 22 20 18 18 17 15 13 13 14 14 12 12 11 13 10 10 7 3 3 6 2 8 8 5 4 3 4 3 1 5 1 2 2 2 1 8 5
14 14 16 13 8 12 9 18 18 17 15 16 17 18 18 17 17 14 14 13 14 13 12 12 11 12 10 8 6 2 5 2 2 3 5 5 4 3 5 1 5 5 2 7 1 3 4 2 3
18 18 20 10 11 13 13 19 19 16 17 14 17 13 16 16 17 16 16 14 14 13 12 11 9 11 9 8 4 3 5 3 3 1 4 7 6 4 5 4 4 6 4 7 7 5 4 5 6
16 15 13 11 15 10 11 20 19 16 17 18 16 14 11 16 15 17 15 14 15 14 13 12 10 11 8 8 8 3 7 2 3 2 6 5 4 5 5 2 5 5 2 1 3 4 3 1 4
20 19 18 4 10 8 14 17 16 17 14 17 15 16 12 18 18 16 13 16 15 15 14 13 11 12 9 7 6 4 1 3 6 6 5 4 5 4 5 3 5 4 2 4 1 3 5 3 6
18 15 14 11 9 15 13 18 20 10 8 9 15 14 13 15 18 14 14 14 15 16 15 13 12 13 11 8 6 2 2 6 6 7 7 7 6 5 4 4 6 5 1 6 4 4 4 5 3
17 17 19 21 15 12 18 10 19 23 13 14 10 8 12 16 16 17 8 12 16 16 15 14 13 12 12 10 5 8 7 5 4 6 4 8 6 3 6 5 2 3 2 4 4 3 7 2 4
13 9 5 10 17 11 22 10 14 18 17 16 18 16 17 13 18 19 21 13 14 17 16 15 14 12 11 10 9 8 9 7 12 8 7 4 5 6 6 4 4 4 5 4 4 4 3 3 5
3 17 12 12 14 13 14 11 14 16 15 16 11 12 16 19 16 14 17 17 14 18 17 16 15 13 12 13 11 9 6 4 5 4 5 9 9 9 7 6 5 6 4 3 4 4 4 5 6
9 13 12 12 14 11 18 7 8 13 6 9 8 11 14 18 21 21 13 16 17 18 18 17 16 14 14 14 13 12 9 7 3 5 5 8 6 8 11 9 7 7 5 3 4 5 4 3 5
18 21 13 13 14 14 11 13 12 13 10 11 13 7 7 18 16 18 21 15 15 16 19 17 17 15 15 15 13 11 11 8 8 8 4 5 3 2 12 8 9 7 7 6 5 6 7 7 6
18 21 25 15 18 15 14 16 14 13 13 15 7 8 14 7 22 21 17 8 18 17 19 17 16 16 15 16 13 12 11 12 8 8 9 8 5 5 7 9 8 8 7 8 7 7 6 3 5
13 15 20 10 14 16 18 18 15 15 12 8 10 11 13 16 5 9 15 12 9 18 17 20 18 16 16 15 14 13 13 12 11 7 8 7 5 5 9 8 9 7 8 7 7 8 7 6 6
11 13 15 14 16 12 14 10 18 15 11 10 9 11 12 14 14 14 17 11 16 15 14 17 18 17 15 13 13 14 14 14 12 11 10 9 9 8 6 6 3 7 9 9 8 9 3 8 8
12 11 17 12 18 14 6 11 16 14 17 14 11 10 11 12 12 14 13 16 20 15 13 11 6 17 16 13 12 12 12 12 13 12 12 11 10 10 10 9 9 10 10 9 9 10 9 8 9
Wind_Direction
188 204 159 18 234 228 239 102 154 112 119 139 103 104 69 35 40 85 139 128 134 132 127 137 124 118 115 115 112 115 104 100 91 91 93 95 95 92 95 93 96 93 96 93 93 91 95 94 93
193 192 162 128 249 184 94 101 116 137 119 105 116 111 97 59 100 126 124 137 140 126 146 131 131 126 118 114 110 110 98 96 95 93 87 99 95 104 97 99 102 100 95 97 98 99 97 98 91
252 220 198 204 240 54 110 123 134 118 120 102 92 42 33 88 118 124 128 143 137 142 118 112 130 134 129 122 120 116 111 102 93 99 96 100 96 99 97 96 101 97 96 101 102 98 95 93 94
198 265 259 143 118 105 115 116 128 101 82 110 115 92 96 126 131 121 139 149 136 114 107 121 131 132 129 129 123 110 111 100 98 99 94 92 97 96 101 103 100 96 97 102 98 98 100 101 94
225 233 255 149 94 105 113 120 123 106 108 103 62 95 118 111 117 136 149 137 137 122 118 127 131 130 125 122 105 110 106 103 99 93 94 96 93 93 98 103 102 97 101 101 105 93 103 102 94
230 251 256 133 120 108 91 352 115 110 102 106 104 112 106 132 138 141 151 136 137 127 125 130 124 118 124 116 115 111 112 104 100 100 97 97 103 99 105 107 107 104 104 106 97 99 102 92 96
239 267 222 144 129 109 98 32 14 126 136 124 70 117 136 145 143 150 148 133 137 133 122 136 131 123 116 123 112 112 108 102 106 109 107 107 104 100 104 109 104 101 99 103 108 110 99 102 107
263 269 319 86 157 127 127 88 3 64 69 123 162 138 147 143 152 152 143 133 138 132 130 137 142 145 147 136 116 112 111 113 113 125 128 132 124 119 117 114 102 101 107 119 108 116 125 123 129
245 280 57 43 122 125 127 116 349 279 128 211 108 137 137 147 151 155 149 107 172 120 136 103 116 106 121 127 121 126 132 133 135 147 165 176 138 123 134 82 107 109 106 114 127 137 131 138 152
215 223 37 57 107 138 127 123 145 183 138 122 116 127 139 154 157 154 156 148 136 167 135 166 131 162 148 125 136 142 117 161 170 132 189 181 77 70 93 109 119 128 127 138 160 152 117 255 170
248 128 108 73 91 119 135 134 138 176 128 142 140 144 151 156 159 159 156 158 144 152 129 99 137 123 178 120 173 155 184 144 99 39 252 93 116 146 132 142 153 151 182 166 188 166 166 208 225
227 218 159 111 134 118 128 125 158 174 119 135 147 153 155 161 163 162 155 162 138 131 143 123 133 148 105 133 144 110 114 131 129 126 97 179 144 126 106 121 117 43 157 127 336 93 88 109 21
183 259 185 156 144 108 124 142 146 119 114 131 153 161 160 165 163 155 155 140 134 148 146 124 130 101 128 213 51 74 155 111 117 158 121 163 104 98 104 148 74 153 122 83 112 102 123 130 66
200 236 191 210 148 132 136 134 131 128 123 142 167 160 164 163 164 155 166 137 149 154 149 122 138 131 157 93 83 136 76 132 128 121 100 92 95 120 143 151 156 105 106 222 308 191 133 352 81
230 227 209 171 136 143 141 131 111 135 136 150 164 163 162 163 158 162 161 151 154 161 148 141 145 144 163 130 160 202 164 123 128 102 134 84 130 58 133 142 335 112 87 90 131 346 160 130 134
221 242 184 141 169 138 190 117 130 146 156 160 163 162 162 166 157 166 163 165 150 152 151 161 157 146 169 139 194 241 113 95 315 141 146 151 119 177 231 152 161 108 161 170 133 239 74 92 182
207 205 133 167 162 151 134 130 137 144 152 164 171 165 169 168 165 167 165 169 150 146 159 168 150 157 171 149 166 113 113 88 82 177 139 146 125 186 257 175 101 230 151 139 244 236 170 99 109
195 227 150 166 180 202 117 119 150 158 155 178 184 172 175 175 173 168 170 171 160 149 160 171 164 151 175 172 146 122 145 220 114 173 81 151 130 180 282 131 156 244 172 67 331 35 81 224 80
219 217 253 156 150 175 161 133 154 169 192 172 181 186 197 185 173 166 178 172 162 157 164 169 173 156 186 170 177 160 202 191 162 25 124 140 163 165 251 184 183 102 223 68 130 163 214 330 44
258 215 172 88 146 225 134 137 141 173 159 167 183 176 201 199 172 171 172 171 173 166 167 171 177 162 203 187 227 177 113 248 166 141 163 192 151 171 252 275 186 118 263 120 210 342 282 159 111
238 220 137 163 177 234 167 134 139 164 155 166 172 199 188 213 174 168 178 177 175 169 173 175 180 167 198 224 220 197 106 203 172 149 186 176 162 190 263 232 92 241 90 165 162 233 21 318 91
207 232 152 214 191 194 197 156 165 153 168 171 172 184 221 217 171 169 178 191 179 166 174 168 179 181 186 222 196 169 224 187 214 154 144 139 182 154 169 202 251 264 357 138 145 187 315 353 156
225 167 209 192 218 201 194 121 305 151 160 173 168 211 194 211 194 185 176 193 205 167 172 170 179 185 188 202 256 176 245 108 244 102 154 91 146 171 210 197 178 222 268 120 283 106 295 287 305
289 163 197 224 240 239 219 189 205 166 172 177 184 178 212 177 216 217 183 182 209 171 177 174 175 187 198 192 207 251 246 270 17 139 163 172 178 174 206 180 193 226 262 153 208 206 240 304 342
171 195 192 208 217 228 220 156 101 72 52 99 157 206 192 191 177 199 187 197 193 190 183 175 176 190 197 200 203 209 227 258 226 226 193 313 176 188 159 163 192 195 225 205 222 196 273 219 273
205 210 207 192 206 206 206 134 114 120 114 70 23 360 268 201 200 185 191 198 195 193 186 188 174 189 199 209 209 204 210 218 216 212 268 253 352 215 147 175 173 201 186 213 208 219 236 192 212
190 235 229 273 208 212 129 90 125 114 93 65 47 355 360 287 180 195 208 178 196 195 185 187 182 188 201 207 207 208 207 227 231 225 198 218 166 213 277 160 197 202 198 201 195 246 206 184 225
272 229 240 246 251 214 130 160 142 139 96 67 40 27 17 351 245 145 176 185 218 191 178 185 189 189 200 208 204 208 210 211 224 225 235 255 289 248 99 245 175 205 202 205 209 227 186 202 213
210 242 246 249 262 215 153 112 112 112 97 88 59 39 21 31 30 36 37 348 311 181 188 179 190 194 198 204 207 207 206 206 210 216 218 222 235 254 267 261 225 223 210 201 218 272 203 198 221
303 246 219 245 231 273 10 91 98 131 123 99 82 55 42 42 51 44 47 21 32 22 34 11 231 195 197 203 202 212 217 212 206 213 220 216 220 225 239 224 214 238 237 221 215 219 247 220 216